[[{"header":{"parameterUnit":"m.s-1","parameterCategory":1,"la1":30.2991,"la2":30.254,"lo1":-89.0895,"lo2":-89.0444,"dy":0.0017,"dx":0.0017,"nx":28,"ny":28,"refTime":"2024-08-25T21:00:00:Z","depth":0,"parameterNumber":2,"parameterNumberName":"U-component_of_WINDS"},"data":[0,0,0,0,0,0,0,0,0,0,0,0,0,0,0,0,0,0,0,0,0,0,0,0,0,0,0,0,0,0,0,0,0,0,0,0,0,0,0,0,0,0,0,0,0,0,0,0,0,0,0,0,0,0,0,0,0,0,1.4974,1.4974,0,1.5026,1.5027,1.5027,1.503,1.503,1.5029,1.5029,1.5081,1.5083,1.5085,0,0,0,0,0,0,0,0,0,0,0,0,0,1.4874,1.4876,1.4974,1.4974,1.4975,1.5026,1.5027,1.5027,1.5031,1.503,1.5029,1.5028,1.508,1.5083,1.5085,0,0,0,0,0,0,0,0,0,0,0,0,0,1.4921,1.4877,1.4973,1.4983,1.4984,1.5026,1.5027,1.5028,1.5031,1.503,1.5029,1.5028,1.508,1.5083,1.5085,1.5121,0,0,1.5094,1.5096,0,0,0,0,0,0,0,0,1.4918,1.4925,1.4981,1.4982,1.4984,1.5021,1.5011,1.5059,1.5031,1.5013,1.5029,1.5028,1.5062,1.5066,1.5078,1.5124,1.5126,1.5095,1.5096,1.5098,1.5098,0,0,0,0,0,0,0,1.4915,1.4922,1.4994,1.4981,1.4983,1.4984,1.4989,1.502,1.5042,1.5014,1.5015,1.5021,1.5062,1.5075,1.5079,1.5127,1.5095,1.5097,1.5099,1.51,1.5204,1.5205,0,0,0,0,0,0,1.491,1.492,1.4993,1.4996,1.4948,1.4986,1.4992,1.501,1.5041,1.5045,1.5022,1.5021,1.507,1.5076,1.5081,1.5124,1.5098,1.51,1.5102,1.5203,1.5204,1.5205,0,0,0,0,0,0,1.4908,1.4917,1.4991,1.4958,1.4967,1.4989,1.5008,1.5011,1.5024,1.5047,1.5051,1.5031,1.507,1.5077,1.5111,1.5126,1.5102,1.5104,1.5202,1.5203,1.5205,1.5212,0,0,0,0,0,0,1.4905,1.4916,1.493,1.4958,1.4969,1.502,1.5009,1.5013,1.5029,1.5029,1.5056,1.506,1.507,1.5107,1.5114,1.513,1.5107,1.5201,1.5203,1.5204,1.521,1.5214,1.5216,0,0,0,0,0,1.4902,1.493,1.4931,1.494,1.4987,1.5021,1.5027,1.5038,1.503,1.5045,1.5059,1.5059,1.5124,1.511,1.5119,1.5135,1.52,1.5202,1.5204,1.5209,1.5213,1.5216,0,0,0,0,0,0,1.4903,1.4934,1.4935,1.4974,1.4995,1.5022,1.504,1.5042,1.5066,1.5064,1.5076,1.5083,1.5117,1.513,1.5114,1.5171,1.5161,1.5165,1.5162,1.5165,1.5168,1.5164,1.5109,0,0,0,0,0,1.4908,1.4933,1.4959,1.499,1.5001,1.5018,1.5034,1.504,1.5063,1.5071,1.5089,1.511,1.5135,1.5151,1.5175,1.5213,1.5218,1.5228,1.5231,1.5233,1.5236,1.5256,1.5261,1.5213,1.5213,1.5213,0,0,1.4917,1.4938,1.4953,1.4991,1.5008,1.5033,1.5026,1.5053,1.5072,1.5075,1.5109,1.5122,1.5147,1.5183,1.5199,1.5194,1.5251,1.5236,1.5238,1.524,1.5259,1.5264,1.5268,1.5214,1.5214,1.5214,0,0,1.4948,1.4967,1.4994,1.5012,1.5038,1.505,1.5056,1.5083,1.5092,1.5126,1.5129,1.5151,1.5194,1.5212,1.5226,1.5263,1.5264,1.5271,1.5285,1.5305,1.5308,1.5312,1.5324,1.5329,1.5274,1.5274,1.5274,0,1.4957,1.4996,1.5008,1.5035,1.5051,1.5056,1.5084,1.51,1.5133,1.5144,1.5138,1.5192,1.5209,1.5248,1.5257,1.5269,1.5276,1.5267,1.5307,1.5311,1.5314,1.5326,1.5331,1.5275,1.5274,1.5274,1.5274,0,1.5005,1.5032,1.5051,1.5083,1.5101,1.5129,1.5144,1.5161,1.5167,1.5179,1.5213,1.5233,1.5261,1.5272,1.5277,1.5312,1.5308,1.5305,1.5294,1.5319,1.533,1.5335,1.5275,1.5275,1.5275,1.5275,0,0,1.5038,1.5076,1.5083,1.5097,1.5126,1.5147,1.5174,1.5202,1.5216,1.5239,1.5262,1.5298,1.5295,1.5311,1.5318,1.5336,1.5363,1.533,1.5331,1.5335,1.5402,1.5403,1.5409,1.5364,1.5365,1.5365,1.5399,0,1.5071,1.512,1.5132,1.5174,1.5198,1.5203,1.5227,1.5247,1.5259,1.5281,1.5295,1.532,1.5314,1.5324,1.5341,1.5356,1.5376,1.5354,1.5384,1.5385,1.5377,1.5415,1.5417,1.5448,1.5404,1.5405,1.5405,0,1.5117,1.514,1.5185,1.5211,1.5221,1.5243,1.5269,1.529,1.5313,1.5321,1.5339,1.5344,1.5372,1.5361,1.5399,1.5383,1.5397,1.5406,1.5407,1.5409,1.5396,1.5417,1.5458,1.5462,1.5413,1.5412,1.5412,0,1.5135,1.5178,1.521,1.5222,1.5253,1.5268,1.5282,1.5304,1.532,1.5343,1.5353,1.5379,1.5393,1.5412,1.5424,1.5415,1.5461,1.5451,1.5468,1.5467,1.5476,1.5476,1.5519,1.5486,1.5486,1.5486,1.5486,0,1.5171,1.5197,1.5219,1.5238,1.5268,1.5281,1.531,1.5324,1.5343,1.5365,1.5371,1.5391,1.5406,1.5428,1.5438,1.5468,1.5474,1.548,1.5482,1.5479,1.5479,1.5488,1.5485,1.5488,1.5487,1.5487,1.5487,0,1.5196,1.5211,1.5246,1.5273,1.528,1.5301,1.5324,1.5342,1.5355,1.5382,1.5389,1.5409,1.5435,1.5449,1.5482,1.5488,1.5522,1.5523,1.5514,1.5515,1.553,1.5528,1.558,1.5587,1.5551,1.5551,1.5551,0,1.5217,1.5238,1.5267,1.5282,1.5296,1.5321,1.5337,1.535,1.5367,1.5395,1.541,1.5437,1.5459,1.5501,1.5517,1.5542,1.5544,1.556,1.5547,1.5543,1.5543,1.5541,1.5543,1.5562,1.5562,1.5563,1.5563,0,1.5253,1.526,1.5284,1.531,1.5329,1.5351,1.5371,1.5383,1.54,1.5418,1.5446,1.5463,1.5497,1.5523,1.5549,1.5562,1.5565,1.5567,1.5572,1.5568,1.5562,1.5565,1.5519,1.5565,1.5565,1.5565,1.5565,1.5565,1.5277,1.5295,1.5318,1.5344,1.5362,1.5381,1.54,1.5415,1.5438,1.5466,1.5473,1.5501,1.5523,1.5559,1.5573,1.5595,1.5592,1.5599,1.5601,1.5602,1.5602,1.5559,1.56,1.56,1.56,1.56,1.56,0,1.5313,1.5328,1.5352,1.5381,1.5401,1.5402,1.5426,1.5442,1.5467,1.5488,1.5509,1.554,1.5566,1.5584,1.561,1.5624,1.5626,1.563,1.5629,1.5632,1.5604,1.5597,1.5628,1.5628,1.5628,1.5628,1.5628,1.5628,1.5333,1.5364,1.5374,1.5413,1.5428,1.5456,1.5469,1.5487,1.5503,1.5537,1.5559,1.5571,1.559,1.5617,1.564,1.5645,1.5654,1.5658,1.5663,1.5637,1.5634,1.5631,1.5624,1.566,1.566,1.5688,1.5689,1.5689]},{"header":{"parameterUnit":"m.s-1","parameterCategory":1,"la1":30.2991,"la2":30.254,"lo1":-89.0895,"lo2":-89.0444,"dy":0.0017,"dx":0.0017,"nx":28,"ny":28,"refTime":"2024-08-25T21:00:00:Z","depth":0,"parameterNumber":3,"parameterNumberName":"V-component_of_WINDS"},"data":[0,0,0,0,0,0,0,0,0,0,0,0,0,0,0,0,0,0,0,0,0,0,0,0,0,0,0,0,0,0,0,0,0,0,0,0,0,0,0,0,0,0,0,0,0,0,0,0,0,0,0,0,0,0,0,0,0,0,-1.1508,-1.1508,0,-1.1561,-1.1562,-1.1562,-1.1586,-1.1586,-1.1586,-1.1586,-1.164,-1.1641,-1.1643,0,0,0,0,0,0,0,0,0,0,0,0,0,-1.1426,-1.1427,-1.1508,-1.1508,-1.1509,-1.1561,-1.1562,-1.1562,-1.1586,-1.1586,-1.1586,-1.1586,-1.1639,-1.1641,-1.1643,0,0,0,0,0,0,0,0,0,0,0,0,0,-1.1469,-1.1428,-1.1507,-1.1527,-1.1529,-1.1561,-1.1562,-1.1563,-1.1586,-1.1586,-1.1586,-1.1586,-1.1639,-1.1641,-1.1643,-1.1659,0,0,-1.165,-1.1651,0,0,0,0,0,0,0,0,-1.1466,-1.1472,-1.1524,-1.1526,-1.1528,-1.1567,-1.1553,-1.1595,-1.1586,-1.1565,-1.1586,-1.1586,-1.1616,-1.162,-1.163,-1.1661,-1.1664,-1.165,-1.1651,-1.1652,-1.1653,0,0,0,0,0,0,0,-1.1463,-1.1469,-1.1529,-1.1524,-1.1527,-1.1533,-1.1539,-1.1561,-1.159,-1.1566,-1.1568,-1.1574,-1.1617,-1.1628,-1.1631,-1.1664,-1.165,-1.1652,-1.1653,-1.1654,-1.1713,-1.1713,0,0,0,0,0,0,-1.1457,-1.1467,-1.1527,-1.153,-1.1496,-1.1535,-1.1541,-1.1555,-1.159,-1.1595,-1.1574,-1.1575,-1.1624,-1.1629,-1.1633,-1.1655,-1.1652,-1.1655,-1.1656,-1.1712,-1.1713,-1.1713,0,0,0,0,0,0,-1.1455,-1.1462,-1.1525,-1.1499,-1.1508,-1.1536,-1.1551,-1.1556,-1.1567,-1.1596,-1.1601,-1.158,-1.1624,-1.163,-1.1653,-1.1657,-1.1656,-1.1658,-1.1712,-1.1712,-1.1713,-1.1697,0,0,0,0,0,0,-1.1453,-1.1461,-1.1468,-1.1499,-1.1509,-1.1543,-1.1551,-1.1557,-1.157,-1.1572,-1.1603,-1.1607,-1.1624,-1.1649,-1.1655,-1.166,-1.1659,-1.1712,-1.1712,-1.1713,-1.1697,-1.1696,-1.1696,0,0,0,0,0,-1.145,-1.1461,-1.1468,-1.1475,-1.1517,-1.1543,-1.1549,-1.1568,-1.1571,-1.1577,-1.1596,-1.1606,-1.1656,-1.1651,-1.1658,-1.1664,-1.1712,-1.1712,-1.1713,-1.1697,-1.1697,-1.1696,0,0,0,0,0,0,-1.1428,-1.1465,-1.1473,-1.1495,-1.1516,-1.1547,-1.1556,-1.1567,-1.1588,-1.1588,-1.1611,-1.1618,-1.1639,-1.1653,-1.1648,-1.1681,-1.1685,-1.1686,-1.1671,-1.167,-1.167,-1.1665,-1.1661,0,0,0,0,0,-1.1426,-1.1444,-1.1475,-1.1491,-1.1501,-1.1527,-1.1539,-1.1552,-1.1575,-1.1584,-1.1605,-1.1626,-1.1646,-1.1659,-1.1679,-1.17,-1.1707,-1.1707,-1.1706,-1.1706,-1.1707,-1.1719,-1.172,-1.1714,-1.1714,-1.1714,0,0,-1.1421,-1.1444,-1.1454,-1.1487,-1.1505,-1.1524,-1.1534,-1.1553,-1.1567,-1.1587,-1.1609,-1.1625,-1.1651,-1.1672,-1.1683,-1.1685,-1.171,-1.1706,-1.1706,-1.1707,-1.172,-1.172,-1.1721,-1.1715,-1.1715,-1.1715,0,0,-1.1422,-1.1441,-1.1456,-1.1475,-1.1502,-1.1519,-1.1523,-1.1553,-1.1565,-1.1588,-1.1603,-1.162,-1.1655,-1.1673,-1.1686,-1.1695,-1.1706,-1.1701,-1.1699,-1.171,-1.1711,-1.1711,-1.1715,-1.1716,-1.1703,-1.1703,-1.1703,0,-1.1413,-1.1441,-1.1463,-1.1481,-1.1496,-1.1516,-1.1532,-1.1548,-1.158,-1.159,-1.1592,-1.1637,-1.1655,-1.1682,-1.1684,-1.1694,-1.17,-1.1698,-1.1709,-1.171,-1.1711,-1.1714,-1.1716,-1.1702,-1.1702,-1.1702,-1.1702,0,-1.1429,-1.1448,-1.1458,-1.1489,-1.1505,-1.1522,-1.1546,-1.156,-1.1572,-1.1589,-1.1613,-1.1636,-1.1662,-1.1669,-1.1681,-1.1698,-1.1698,-1.1705,-1.1708,-1.171,-1.1714,-1.1715,-1.1701,-1.1701,-1.1701,-1.1701,0,0,-1.1416,-1.1461,-1.1463,-1.1478,-1.1511,-1.1526,-1.1545,-1.157,-1.1582,-1.1604,-1.162,-1.1649,-1.1656,-1.1671,-1.1685,-1.1696,-1.1702,-1.1701,-1.1702,-1.1701,-1.1722,-1.1717,-1.1718,-1.171,-1.171,-1.171,-1.172,0,-1.1422,-1.1455,-1.1476,-1.1502,-1.152,-1.154,-1.1556,-1.1578,-1.1594,-1.1613,-1.1631,-1.1652,-1.1659,-1.1668,-1.1679,-1.1699,-1.1707,-1.1699,-1.1725,-1.1726,-1.1718,-1.172,-1.1715,-1.1723,-1.1722,-1.1722,-1.1722,0,-1.1432,-1.1454,-1.1482,-1.1513,-1.1522,-1.1536,-1.1562,-1.1579,-1.1604,-1.1616,-1.1633,-1.1648,-1.1669,-1.1672,-1.17,-1.1694,-1.1706,-1.1718,-1.1719,-1.1722,-1.1724,-1.1723,-1.1726,-1.1727,-1.1725,-1.1725,-1.1725,0,-1.1421,-1.1457,-1.1479,-1.1491,-1.1528,-1.1537,-1.1553,-1.1578,-1.1593,-1.1615,-1.1625,-1.165,-1.1663,-1.1682,-1.1703,-1.1703,-1.173,-1.1734,-1.174,-1.1739,-1.1744,-1.1744,-1.1749,-1.1752,-1.1752,-1.1752,-1.1752,0,-1.1424,-1.144,-1.1474,-1.1487,-1.1506,-1.153,-1.1548,-1.1565,-1.1588,-1.1605,-1.1624,-1.1639,-1.1666,-1.1685,-1.1702,-1.1724,-1.173,-1.174,-1.1744,-1.1738,-1.1736,-1.1746,-1.1746,-1.1753,-1.1753,-1.1753,-1.1753,0,-1.1414,-1.1437,-1.1462,-1.1495,-1.1504,-1.1517,-1.1545,-1.1559,-1.1577,-1.1598,-1.1605,-1.1633,-1.1657,-1.168,-1.1712,-1.1723,-1.1744,-1.175,-1.1736,-1.1738,-1.1743,-1.1742,-1.1754,-1.1756,-1.1758,-1.1758,-1.1758,0,-1.1415,-1.1428,-1.1463,-1.1475,-1.1491,-1.1511,-1.1527,-1.1551,-1.1566,-1.1596,-1.1607,-1.1632,-1.1653,-1.169,-1.1713,-1.1738,-1.1744,-1.1747,-1.1748,-1.1742,-1.1744,-1.1743,-1.1745,-1.1746,-1.1746,-1.1745,-1.1745,0,-1.1413,-1.1425,-1.1446,-1.1471,-1.1489,-1.151,-1.1532,-1.1542,-1.157,-1.1586,-1.1611,-1.1628,-1.166,-1.1685,-1.1713,-1.1729,-1.1742,-1.1745,-1.1748,-1.1741,-1.1733,-1.1738,-1.1734,-1.1744,-1.1744,-1.1745,-1.1745,-1.1745,-1.1409,-1.1421,-1.1448,-1.1471,-1.1491,-1.1511,-1.1526,-1.1546,-1.1567,-1.1596,-1.1609,-1.1634,-1.166,-1.1698,-1.1715,-1.1735,-1.1738,-1.1742,-1.1743,-1.1743,-1.1742,-1.173,-1.174,-1.174,-1.174,-1.174,-1.174,0,-1.1408,-1.1427,-1.1448,-1.1478,-1.1497,-1.1508,-1.1533,-1.1548,-1.157,-1.1593,-1.1614,-1.1643,-1.1667,-1.1693,-1.1719,-1.173,-1.1737,-1.1736,-1.1736,-1.1739,-1.1737,-1.1733,-1.1731,-1.1731,-1.1731,-1.1731,-1.1731,-1.1731,-1.141,-1.1432,-1.1447,-1.1479,-1.1498,-1.1523,-1.1536,-1.1555,-1.1574,-1.1605,-1.1626,-1.1643,-1.1668,-1.1696,-1.1719,-1.1726,-1.1735,-1.1732,-1.1741,-1.1739,-1.1739,-1.174,-1.1735,-1.1734,-1.1734,-1.1741,-1.1741,-1.1741]}]]